FENGYUN 1C DEB, 37588

Orbit data source: Space-Track

FENGYUN 1C DEB, 37588 is space debris in SSO originally from a launch on Mon, 10 May 1999 UTC launched from the Taiyaun Space Center, China (TSC). Fengyun 1C debris stems from the Chinese weather satellite Fengyun-1C, which was intentionally destroyed by a Chinese anti-satellite missile in 2007. This event dramatically increased the amount of space debris, with thousands of trackable fragments posing hazards to satellites and human spaceflight. The Fengyun 1C debris cloud has become a focal point in discussions about space sustainability and the need for international regulations to prevent the creation of new debris.

Loading next visibility...
Identifier
37588, 1999-025EKG
Orbit
SSO
Country
Flag of CNCN / PRC
Related business
Manufacturer
Unknown
Mission
Spacecraft
Bus & Motor
Unknown
Mass
Unknown
Launch date (UTC)
1999-05-10 (27 years ago)
Launch vehicle
Unknown
Launch site
Taiyaun Space Center, China (TSC)
Object type
Payload
Rocket body
Debris
Shape & HBR
Unknown shape, 0.1 m
Radar Cross Section
Small (<0.1 m²)

Expand to show TLE details & history
Last TLE update: 2 weeks ago

TLE from 2 weeks ago
0 FENGYUN 1C DEB
1 37588U 99025EKG 26222.87908627  .00001130  00000-0  58538-3 0  9994
2 37588  98.1322 253.7541 0084818  77.7179  95.7965 14.14743791616614
Epoch: 2026-08-10T21:05Z
TLE epoch observation values (Epoch: 2026-08-10T21:05:53.053Z)
Latitude
5.38095°
Longitude
158.69478°
Altitude
852.273 km
Speed
7.423 km/s
True Right ascension
04h 58m 05s
True Declination
5° 20' 58"
Sunlit
Object was in daylight at epoch
Visualization orbit readout
Latitude
Unknown
Longitude
Unknown
Altitude
Unknown
Speed
Unknown
Apparent Right ascension
Unknown
Apparent Declination
Unknown
Sunlit
N/A
Visualization observer readout
Local Sidereal Time
11:13:03
Azimuth
Unknown
Elevation
Unknown
Doppler factor
Unknown
Orbital elements
Apogee altitude
901.548 km
Perigee altitude
779.097 km
Semi-major axis
7,218.46 km
Eccentricity
0.00848
Inclination
98.1322°
RAAN
253.7541°
Arg. of periapsis
77.7179°
True anomaly
96.76239°
Mean anomaly
95.7965°
Eccentric anomaly
96.27956°
Mean motion
3.53897 °/min
Orbital period
101.72 mins
BSTAR
0.00058538
Loading maneuver chart data...
Computing Atmospheric mass density...

Documentation

Showing up to 5 results
|